Regional Weather Roundup
Issued by NWS

Current Version | Previous Version | Text Only | Print | Product List | Glossary On
Versions: 1 2 3 4 5 6 7 8 9 10 11 12 13 14 15 16 17 18 19 20 21 22 23 24 25 26 27 28 29 30 31 32 33 34 35 36 37 38 39 40 41 42 43 44 45 46 47 48 49 50
000
ASUS43 KMPX 120210
RWRMN
WEATHER ROUNDUP FOR MINNESOTA
NATIONAL WEATHER SERVICE TWIN CITIES/CHANHASSEN MN
800 PM CST MON NOV 11 2019


NOTE: "FAIR" INDICATES FEW OR NO CLOUDS BELOW 12,000 FEET WITH NO
SIGNIFICANT WEATHER AND/OR OBSTRUCTIONS TO VISIBILITY. N/A MEANS
CURRENT SKY AND/OR WEATHER CONDITIONS ARE NOT AVAILABLE.

MNZ060>063-068>070-120300-
   Twin Cities Metro

CITY           SKY/WX    TMP DP  RH WIND       PRES   REMARKS
TWIN CITIES    FAIR      10  -3  55 N15       30.59R WCI  -7
ST PAUL        FAIR      10  -3  55 NW17      30.61R WCI  -8
CRYSTAL        FAIR       9  -3  58 NW12      30.59R WCI  -6
BLAINE         CLEAR     10   0  61 NW12      30.58R WCI  -4
LAKEVILLE      FAIR      10   1  67 NW9       30.58S WCI  -2
EDEN PRAIRIE   FAIR      10  -3  55 NW14G23   30.58R WCI  -6
SOUTH ST PAUL  FAIR      11  -3  54 NW9       30.59S WCI  -2
LAKE ELMO      FAIR      10   0  61 NW8       30.59R WCI  -1
$$
MNZ001>005-007-008-013>017-022>024-027-028-120300-
   Northwest Minnesota

CITY           SKY/WX    TMP DP  RH WIND       PRES   REMARKS
BEMIDJI        FAIR      -2  -7  79 W5        30.54S WCI -12
HALLOCK        CLEAR      0  -6  78 S6        30.59S WCI -12
WARROAD        FAIR       0  -6  78 CALM      30.55F
THIEF RVR FALL CLEAR     -1  -6  79 CALM      30.58F
CROOKSTON      CLEAR      3  -2  78 CALM      30.61F
FOSSTON        CLEAR     -6  -9  84 CALM      30.57S
DETROIT LAKES  FAIR       5   0  78 W3        30.58S
MOORHEAD       CLEAR      7  -4  61 W10       30.63F WCI  -8
PARK RAPIDS    FAIR       1  -6  72 NW5       30.54S WCI  -9
MAHNOMEN       FAIR       1  -3  81 CALM      30.57F
$$
MNZ006-009>011-018-025>026-120300-
   North Central Minnesota

CITY           SKY/WX    TMP DP  RH WIND       PRES   REMARKS
BAUDETTE       CLOUDY     3  -5  69 W10       30.52F WCI -12
FLAG ISLAND      N/A      3  -2  78 W14       30.53F WCI -15
INTL FALLS     FAIR      -1  -5  82 W5        30.50F WCI -11
WASKISH          N/A      5  -2  72 W10G16    30.54S WCI -10
BIG FORK       FAIR       0  -6  78 CALM      30.55S
LONGVILLE      FAIR       5  -6  61 NW7       30.54S WCI  -7
GRAND RAPIDS   FAIR       3  -4  72 NW10      30.53F WCI -12
CRANE LAKE     FAIR       0  -6  78 CALM      30.53S
ORR            FAIR       1  -4  78 W5        30.47S WCI  -8
COOK           FAIR       0  -6  78 W5        30.49R WCI -10
WALKER         FAIR       1  -4  79 W5        30.55S WCI  -9
$$
MNZ012-019>021-037-120300-
   Northeast Minnesota

CITY           SKY/WX    TMP DP  RH WIND       PRES   REMARKS
DULUTH         FAIR       7  -4  60 NW14      30.46S WCI -10
ELY            FAIR       1  -8  66 NW7       30.45S WCI -11
HIBBING        FAIR       2  -6  69 NW10      30.49S WCI -14
EVELETH        FAIR       4  -2  75 NW8       30.49S WCI  -9
DULUTH HARBOR  CLOUDY    10  -2  56 W12G17    30.56S WCI  -4
TWO HARBORS    FAIR       5  -9  51 NW5       30.47R WCI  -4
SILVER BAY     FAIR       3  -6  66 CALM      30.47R
GRAND MARAIS     N/A      7  -7  52 CALM        N/A
G MARAIS ARPRT FAIR       0 -11  60 NW10G21   30.33S WCI -17
$$
MNZ029>031-032-039>041-046>048-054>057-064-120300-
   West Central Minnesota

CITY           SKY/WX    TMP DP  RH WIND       PRES   REMARKS
FERGUS FALLS   FAIR       3  -2  78 W5        30.65R WCI  -6
MORRIS         CLEAR      3  -2  78 W5        30.57S WCI  -6
ALEXANDRIA     FAIR       5   0  79 W8        30.58S WCI  -8
ELBOW LAKE     FAIR       4  -1  81 NW6       30.62S WCI  -7
WADENA         FAIR       1  -2  85 NW3       30.56S
GLENWOOD       FAIR       3   0  85 W9        30.59S WCI -11
APPLETON       CLEAR      7   0  72 CALM      30.65S
BENSON         CLEAR      1  -2  85 N7        30.64F WCI -11
ORTONVILLE       N/A      9   0  66 NW9       30.64S WCI  -5
MADISON        CLEAR      9   0  66 NW7       30.65S WCI  -3
WILLMAR        FAIR       7   0  72 NW7       30.64S WCI  -5
$$
MNZ033>034-036-042>043-049>051-058-059-120300-
   Central Minnesota

CITY           SKY/WX    TMP DP  RH WIND       PRES   REMARKS
ST CLOUD       FAIR       4  -3  73 NW7       30.59S WCI  -8
SAUK CENTRE    FAIR       7   0  74 NW7       30.59S WCI  -5
PAYNESVILLE    MOCLDY     7   3  83 W6        30.60S WCI  -3
AITKIN         FAIR       3  -2  78 CALM      30.54S
PINE RIVER     FAIR       3  -4  72 NW3       30.58S
BRAINERD       FAIR       8  -4  58 NW10      30.56S WCI  -6
STAPLES        FAIR       1  -4  78 CALM      30.57S
LONG PRAIRIE   FAIR       3  -2  78 NW3       30.58S
LITTLE FALLS   FAIR       5  -2  72 NW6       30.59S WCI  -6
LITCHFIELD       N/A      9   1  72 NW8       30.60S WCI  -4
BUFFALO        FAIR       9  -2  62 MISG      30.61S
MAPLE LAKE       N/A      9   1  72 NW9       30.60S WCI  -5
HUTCHINSON     CLEAR      9   1  68 NW10G18   30.61S WCI  -5
$$
MNZ037-044-045-052-053-120300-
   East Central Minnesota

CITY           SKY/WX    TMP DP  RH WIND       PRES   REMARKS
PRINCETON      FAIR       5  -2  72 W3        30.58S
MORA           CLOUDY     9   0  66 N6        30.58S WCI  -1
CAMBRIDGE      FAIR       7  -4  61 W5        30.58S WCI  -2
RUSH CITY      FAIR       5  -3  71 NW3       30.58S
MOOSE LAKE     FAIR       5  -4  66 NW5       30.53R WCI  -4
HINCKLEY       FAIR       7   0  72 W5        30.56S WCI  -2
MCGREGOR       FAIR       5   0  78 NW5       30.54S WCI  -4
$$
MNZ071>073-080-081-089-090-097-098-120300-
   Southwest Minnesota

CITY           SKY/WX    TMP DP  RH WIND       PRES   REMARKS
MONTEVIDEO     CLEAR      7  -2  66 N6        30.64S WCI  -3
GRANITE FALLS  CLEAR      8   1  73 W7        30.66S WCI  -3
CANBY          CLEAR      7  -1  70 NW7       30.66R WCI  -4
MARSHALL       CLEAR      7  -1  70 NW8       30.64S WCI  -6
REDWOOD FALLS  CLEAR      8   0  69 NW8G17    30.64R WCI  -4
OLIVIA         CLEAR      9   1  72 NW6       30.62S WCI  -1
PIPESTONE      CLEAR      7   1  78 CALM      30.60R
WORTHINGTON    CLEAR      4   0  83 NW8       30.60S WCI  -9
JACKSON        CLEAR      7   0  72 NW10      30.59S WCI  -8
TRACY          CLEAR      7   1  78 NW6       30.62R WCI  -3
$$
MNZ065>067-074>077-082>085-091>093-120300-
   South Central Minnesota

CITY           SKY/WX    TMP DP  RH WIND       PRES   REMARKS
MANKATO        FAIR       9   3  77 NW10      30.60S WCI  -5
FAIRMONT       CLEAR      7   1  76 NW12      30.61R WCI  -8
GLENCOE        MOCLDY    11   4  72 NW8       30.60R WCI  -1
FARIBAULT      FAIR      10   0  61 NW10G18   30.57S WCI  -3
WASECA         FAIR       9   0  66 NW13      30.58S WCI  -7
ALBERT LEA     FAIR       9   1  72 NW9G16    30.55S WCI  -5
$$
MNZ078>079-086>088-094>096-120300-
   Southeast Minnesota

CITY           SKY/WX    TMP DP  RH WIND       PRES   REMARKS
ROCHESTER      FAIR       9  -2  61 NW16      30.52R WCI  -8
RED WING       FAIR      10  -2  56 NW8       30.57S WCI  -1
STANTON        FAIR      10  -2  58 NW9       30.57R WCI  -3
DODGE CENTER   FAIR       9  -2  61 NW14G20   30.52S WCI  -8
WINONA         FAIR      14   0  52 N13G21    30.56R WCI   0
AUSTIN         FAIR      12  -2  52 NW13G22   30.54R WCI  -3
PRESTON        FAIR       9  -3  57 N14G20    30.51R WCI  -7
$$
ABBREVIATIONS USED IN REMARKS
   TC - TEMPERATURES IN CELSIUS
  WCI - WIND CHILL INDEX
   HX - HEAT INDEX
  VSB - VISIBILITY
$$



USA.gov is the U.S. government's official web portal to all federal, state and local government web resources and services.